sat.trackr.live / text

‹ back to catalog

ASTRA 1N

NORAD 37775 · 2011-041A

PAYLOAD ACTIVE UNKNOWN

§ Identity

Operator
Country
SES
Launch date
2011-08-06
Launch site
FRGUI
Launch vehicle
Mass (kg)
RCS (m²)
7.94

Purposes: comms

External: N2YO · Heavens-Above · Gunter

§ Orbital elements

Epoch: 2026-09-20T01:36:54.088416Z

Period
1,436.11 min
Inclination
0.0789°
Eccentricity
0.0004875
Mean motion
1.00270600 rev/d
Perigee alt
35,766.4 km
Apogee alt
35,807.5 km
Semi-major
42,165.1 km
B*
0.0000e+0
RAAN
27.7368°
Arg perigee
121.9232°
Mean anomaly
252.7420°
Rev number
4,547

§ Raw data

ASTRA 1N1 37775U 11041A   26263.06729269  .00000115  00000+0  00000+0 0  99912 37775   0.0789  27.7368 0004875 121.9232 252.7420  1.00270600 45470

JSON: /api/v1/satellites/37775 · /tle

For live sub-satellite position, see the globe view (requires WebGL).

§ Visibility from observer

Set your observer location to see the next 7 days of passes ≥ 10°. The values pass through the URL so the page stays shareable.

No JS? Fill the form by hand. The geolocation button needs JavaScript.